Weather History for KGEG - June, 2013

Change the Weather History Date:

Saturday, June 8, 2013

  Actual Average Record
Temperature  
Mean Temperature 63 °F 60 °F  
Max Temperature 78 °F 72 °F 91 °F (1931)
Min Temperature 47 °F 49 °F 34 °F (1891)
Degree Days  
Heating Degree Days 2 6  
Month to date heating degree days 26 50  
Since 1 June heating degree days 26 50  
Since 1 July heating degree days 6126 6507  
Cooling Degree Days 0 1  
Month to date cooling degree days 13 8  
Year to date cooling degree days 43 22  
Since 1 June cooling degree days 13 8  
Growing Degree Days 12 (Base 50)    
Moisture  
Dew Point 36 °F    
Average Humidity 45    
Maximum Humidity 71    
Minimum Humidity 18    
Precipitation  
Precipitation 0.00 in 0.05 in 1.52 in (1964)
Month to date precipitation 0.10 0.42  
Year to date precipitation 5.03 8.05  
Snow  
Snow 0.00 in 0.00 in 0.00 in (2002)
Month to date snowfall 0.0 0.0  
Since 1 June snowfall 0.0 0.0  
Since 1 July snowfall 43.5 44.9  
Snow Depth 0.00 in    
Sea Level Pressure  
Sea Level Pressure 29.95 in    
Wind  
Wind Speed 10 mph (SSW)    
Max Wind Speed 22 mph    
Max Gust Speed 26 mph    
Visibility 10 miles    
Events      
T = Trace of Precipitation, MM = Missing Value Source: NWS Daily Summary

Daily Weather History Graph

Daily Weather History Graph

Search for Another Location

Airport or City:

Trip Planner

Search our weather history database for the weather conditions in past years. The results will help you decide how hot, cold, wet, or windy it might be!

Date:

Astronomy

Jun. 08, 2013 Rise Set
Actual Time 4:52 AM PDT 8:45 PM PDT
Civil Twilight 4:12 AM PDT 9:26 PM PDT
Nautical Twilight 3:17 AM PDT 10:21 PM PDT
Astronomical Twilight 1:54 AM PDT 11:45 PM PDT
Moon 5:08 AM PDT (6/8) 8:47 PM PDT (6/8)
Length of Visible Light 17h 13m
Length of Day
15h 53m
New Moon, 0% of the Moon is Illuminated
Jun 8
New Moon
Jun 16
First Quarter
Jun 23
Full
Jun 29
Last Quarter
Jul 8
New

Hourly Weather History & Observations

Time (PDT) Temp. Dew Point Humidity Pressure Visibility Wind Dir Wind Speed Gust Speed Precip Events Conditions
12:53 AM 54.0 °F 37.9 °F 55% 29.91 in 10.0 mi SW 9.2 mph - N/A   Clear
1:53 AM 54.0 °F 35.1 °F 49% 29.91 in 10.0 mi WSW 12.7 mph - N/A   Clear
2:53 AM 52.0 °F 35.1 °F 53% 29.93 in 10.0 mi South 4.6 mph - N/A   Clear
3:53 AM 50.0 °F 36.0 °F 59% 29.95 in 10.0 mi South 6.9 mph - N/A   Clear
4:53 AM 48.9 °F 37.0 °F 64% 29.97 in 10.0 mi South 5.8 mph - N/A   Partly Cloudy
5:53 AM 48.0 °F 39.0 °F 71% 29.99 in 10.0 mi SSE 8.1 mph - N/A   Scattered Clouds
6:53 AM 51.1 °F 39.0 °F 63% 30.01 in 10.0 mi SSE 5.8 mph - N/A   Partly Cloudy
7:53 AM 55.0 °F 39.9 °F 57% 30.01 in 10.0 mi SSE 6.9 mph - N/A   Partly Cloudy
8:53 AM 59.0 °F 39.0 °F 48% 30.02 in 10.0 mi South 8.1 mph - N/A   Partly Cloudy
9:53 AM 63.0 °F 37.9 °F 40% 30.01 in 10.0 mi SSW 5.8 mph - N/A   Partly Cloudy
10:53 AM 66.0 °F 37.9 °F 36% 30.02 in 10.0 mi SW 11.5 mph 18.4 mph N/A   Partly Cloudy
11:53 AM 70.0 °F 36.0 °F 29% 30.00 in 10.0 mi SSW 12.7 mph 19.6 mph N/A   Scattered Clouds
12:53 PM 72.0 °F 32.0 °F 23% 29.99 in 10.0 mi SSW 15.0 mph 19.6 mph N/A   Partly Cloudy
1:53 PM 75.0 °F 30.9 °F 20% 29.97 in 10.0 mi SW 10.4 mph 19.6 mph N/A   Partly Cloudy
2:53 PM 77.0 °F 30.0 °F 18% 29.96 in 10.0 mi West 18.4 mph - N/A   Partly Cloudy
3:53 PM 77.0 °F 30.9 °F 19% 29.95 in 10.0 mi WSW 15.0 mph 21.9 mph N/A   Partly Cloudy
4:53 PM 77.0 °F 30.0 °F 18% 29.94 in 10.0 mi WSW 11.5 mph 19.6 mph N/A   Partly Cloudy
5:53 PM 77.0 °F 34.0 °F 21% 29.93 in 10.0 mi WSW 15.0 mph - N/A   Partly Cloudy
6:53 PM 77.0 °F 36.0 °F 23% 29.91 in 10.0 mi WSW 13.8 mph - N/A   Partly Cloudy
7:53 PM 75.0 °F 37.9 °F 26% 29.90 in 10.0 mi SSW 9.2 mph - N/A   Partly Cloudy
8:53 PM 71.1 °F 39.0 °F 31% 29.89 in 10.0 mi South 8.1 mph - N/A   Partly Cloudy
9:53 PM 66.9 °F 39.9 °F 37% 29.90 in 10.0 mi SW 10.4 mph - N/A   Partly Cloudy
10:53 PM 66.0 °F 39.9 °F 38% 29.89 in 10.0 mi SSW 10.4 mph - N/A   Clear
11:53 PM 63.0 °F 41.0 °F 45% 29.88 in 10.0 mi SW 11.5 mph - N/A   Clear